Stations météo

réclame
Mon MeteoGroup
Toulouse/Blagnac, France (7630): Température de l'air & dewpoint: 18.01.2018 10:00:00 - 24.01.2018 10:00:00 (CET)Toulouse/Blagnac, France (7630): Température de l'air 5cm: 18.01.2018 10:00:00 - 24.01.2018 10:00:00 (CET)Toulouse/Blagnac, France (7630): Température de l'air -20cm & Température de l'air -100cm: 18.01.2018 10:00:00 - 24.01.2018 10:00:00 (CET)Toulouse/Blagnac, France (7630): Vitesse du vent & gusts: 18.01.2018 10:00:00 - 24.01.2018 10:00:00 (CET)Toulouse/Blagnac, France (7630): Direction du vent: 18.01.2018 10:00:00 - 24.01.2018 10:00:00 (CET)Toulouse/Blagnac, France (7630): reduced air pressure: 18.01.2018 10:00:00 - 24.01.2018 10:00:00 (CET)Toulouse/Blagnac, France (7630): visibility: 18.01.2018 10:00:00 - 24.01.2018 10:00:00 (CET)Toulouse/Blagnac, France (7630): Ensoleillement: 18.01.2018 10:00:00 - 24.01.2018 10:00:00 (CET)Toulouse/Blagnac, France (7630): Quantités de précipitations: 18.01.2018 10:00:00 - 24.01.2018 10:00:00 (CET)
Date & Time tt [°C] td [°C] tt 5cm [°C] tt -20cm [°C] tt -100cm [°C] ff [km/h] ff [knt] fx [km/h] fx [knt] dd ppp [hPa] vv [km] sd [min] rr [mm]
24.01.2018 10:00:00 8,9 6,7 7,7 10,4 10,8 18 10 31 17 SE 1025,0 29 60 0,0
24.01.2018 09:00:00 6,9 6,6 6,7 10,4 10,8 9 5 11 6 SE 1025,5 0,2 18 0,0
24.01.2018 08:00:00 6,9 6,6 6,3 10,5 10,8 5 3 8 5 SE 1025,6 0,1 0 0,0
24.01.2018 07:00:00 6,5 6,1 5,8 10,6 10,8 2 1 8 4 S 1026,1 0,1 0 0,0
24.01.2018 06:00:00 7,0 6,3 3,2 10,7 10,8 5 3 8 5 ESE 1026,5 0,1 0 0,0
24.01.2018 05:00:00 8,8 8,0 3,3 10,7 10,8 3 2 4 2 E 1027,0 0,1 0 0,0
24.01.2018 04:00:00 9,8 9,0 8,0 10,8 10,8 4 2 7 4 ESE 1027,8 1,8 0 0,0
24.01.2018 03:00:00 10,0 9,2 8,6 10,8 10,8 5 3 7 4 SE 1028,6 5 0 0,0
24.01.2018 02:00:00 9,9 8,8 6,9 10,9 10,8 4 2 5 3 ESE 1029,2 1,1 0 0,0
24.01.2018 01:00:00 10,6 9,5 8,4 10,9 10,8 3 2 4 2 ESE 1029,8 7 0 0,0
24.01.2018 00:00:00 11,0 9,4 9,6 11,0 10,8 0 0 4 2 N 1030,1 12 0 0,0
23.01.2018 23:00:00 11,3 9,7 10,5 11,0 10,8 3 2 8 4 ESE 1030,0 14 0 0,0
23.01.2018 22:00:00 11,5 9,7 10,7 11,0 10,7 2 1 8 4 NE 1030,1 13 0 0,0
23.01.2018 21:00:00 11,6 10,0 10,9 11,0 10,7 2 1 7 4 E 1030,1 13 0 0,0
23.01.2018 20:00:00 11,7 10,1 11,0 11,0 10,7 4 2 8 4 E 1030,4 13 0 0,0
23.01.2018 19:00:00 11,9 10,1 11,2 11,0 10,7 5 3 10 5 NNE 1030,3 37 0 0,0
23.01.2018 18:00:00 12,1 10,3 11,9 10,9 10,7 8 4 11 6 NNW 1030,0 33 0 0,0
23.01.2018 17:00:00 12,3 10,5 12,6 10,8 10,7 4 2 7 4 NE 1029,7 34 0 0,0
23.01.2018 16:00:00 12,5 10,9 12,7 10,7 10,7 4 2 7 4 N 1029,5 10 1 0,0
23.01.2018 15:00:00 12,2 10,6 12,2 10,6 10,7 5 3 8 4 NNW 1029,2 19 0 0,2
23.01.2018 14:00:00 12,6 9,2 13,4 10,5 10,7 3 1 11 6 SW 1029,6 11 0 0,0
23.01.2018 13:00:00 12,5 8,8 13,7 10,4 10,7 4 2 11 6 W 1030,3 51 9 0,0
23.01.2018 12:00:00 11,7 8,2 12,8 10,3 10,7 7 4 14 8 W 1030,9 59 0 0,0
23.01.2018 11:00:00 11,2 8,2 12,0 10,3 10,7 4 2 8 5 NW 1031,1 44 20 0,0
23.01.2018 10:00:00 10,0 8,6 9,6 10,3 10,7 0 0 7 4 N 1030,8 17 0 0,0
23.01.2018 09:00:00 9,5 8,4 8,8 10,3 10,7 0 0 2 1 N 1030,2 19 0 0,0
23.01.2018 08:00:00 9,5 8,4 8,9 10,4 10,7 0 0 10 5 N 1029,7 16 0 0,0
23.01.2018 07:00:00 9,4 8,5 8,8 10,5 10,7 5 3 22 12 NW 1029,4 15 0 0,0
23.01.2018 06:00:00 9,1 8,5 6,9 10,5 10,7 8 5 17 9 W 1028,9 18 0 0,0
23.01.2018 05:00:00 9,4 8,9 5,7 10,6 10,6 13 7 19 10 W 1028,5 20 0 0,0
23.01.2018 04:00:00 8,3 7,2 6,7 10,6 10,6 9 5 11 6 NW 1028,8 13 0 0,0
23.01.2018 03:00:00 10,1 8,9 9,2 10,7 10,6 7 4 19 10 NNW 1028,5 32 0 0,0
23.01.2018 02:00:00 10,7 9,0 10,3 10,7 10,6 11 6 28 15 W 1028,9 34 0 0,0
23.01.2018 01:00:00 10,8 9,1 10,3 10,7 10,6 18 10 25 14 W 1029,2 17 0 0,0
23.01.2018 00:00:00 10,9 9,2 10,3 10,8 10,6 12 6 26 14 W 1029,5 35 0 0,0
22.01.2018 23:00:00 10,9 8,8 10,1 10,8 10,6 21 12 33 18 WNW 1029,0 38 0 0,0
22.01.2018 22:00:00 10,8 9,4 9,9 10,8 10,6 20 11 32 17 W 1028,3 47 0 0,0
22.01.2018 21:00:00 11,2 9,5 10,5 10,9 10,6 23 12 35 19 W 1027,8 60 0 0,0
22.01.2018 20:00:00 11,7 9,8 11,0 10,9 10,6 21 12 47 25 W 1027,3 60 0 0,0
22.01.2018 19:00:00 12,2 10,1 11,6 10,9 10,6 35 19 56 31 W 1026,5 11 0 0,0
22.01.2018 18:00:00 12,7 9,7 12,3 10,9 10,6 33 18 56 30 W 1025,7 59 0 0,0
22.01.2018 17:00:00 13,1 9,9 11,6 10,8 10,6 34 19 56 30 W 1025,0 59 0 0,0
22.01.2018 16:00:00 12,6 10,5 11,8 10,7 10,5 32 18 55 30 W 1024,9 10 0 0,0
22.01.2018 15:00:00 13,8 9,6 13,2 10,7 10,6 32 18 52 28 W 1024,2 35 0 0,0
22.01.2018 14:00:00 14,1 9,5 13,7 10,6 10,6 28 15 50 27 W 1024,6 20 8 0,0
22.01.2018 13:00:00 13,6 9,8 12,7 10,6 10,6 27 15 50 27 W 1025,7 48 9 0,0
22.01.2018 12:00:00 13,7 9,5 13,1 10,5 10,6 30 16 48 26 W 1026,5 31 10 0,0
22.01.2018 11:00:00 13,6 9,6 12,8 10,5 10,6 27 14 44 24 W 1026,9 43 21 0,0
22.01.2018 10:00:00 12,6 10,0 11,6 10,5 10,5 21 12 36 19 W 1026,7 45 16 0,0
22.01.2018 09:00:00 12,0 10,1 10,8 10,4 10,5 19 10 37 20 W 1026,5 60 0 0,2
22.01.2018 08:00:00 12,0 10,2 11,0 10,5 10,5 24 13 36 19 W 1026,1 3,5 0 0,2
22.01.2018 07:00:00 12,2 10,3 11,4 10,5 10,5 21 12 35 19 W 1025,9 60 0 0,0
22.01.2018 06:00:00 12,1 10,3 11,5 10,5 10,5 23 13 36 19 W 1026,0 60 0 0,0
22.01.2018 05:00:00 12,0 10,6 11,3 10,5 10,5 21 11 34 18 W 1026,1 60 0 0,2
22.01.2018 04:00:00 11,7 10,8 11,2 10,4 10,5 17 9 29 16 W 1026,3 3,9 0 0,4
22.01.2018 03:00:00 11,7 10,8 11,1 10,5 10,5 16 9 42 23 W 1026,6 10 0 0,4
22.01.2018 02:00:00 12,2 10,1 11,1 10,5 10,5 29 15 50 27 W 1026,7 20 0 0,0
22.01.2018 01:00:00 12,2 9,9 11,4 10,5 10,5 22 12 41 22 W 1026,7 15 0 0,0
22.01.2018 00:00:00 12,0 9,9 11,2 10,5 10,5 27 15 44 24 W 1026,6 60 0 0,0
21.01.2018 23:00:00 11,8 10,7 11,3 10,5 10,5 23 12 43 23 W 1026,6 2,4 0 0,2
21.01.2018 22:00:00 12,1 10,5 11,3 10,4 10,5 29 15 41 22 W 1026,4 9 0 0,0
21.01.2018 21:00:00 11,9 10,6 11,3 10,5 10,5 25 14 59 32 W 1026,5 15 0 0,0
21.01.2018 20:00:00 12,5 10,6 11,8 10,5 10,5 30 16 53 29 W 1026,1 14 0 0,0
21.01.2018 19:00:00 12,5 10,9 11,7 10,4 10,5 32 17 53 29 W 1025,5 43 0 0,2
21.01.2018 18:00:00 12,5 11,6 12,0 10,3 10,5 26 14 48 26 W 1025,1 3,1 0 0,2
21.01.2018 17:00:00 13,0 11,4 12,3 10,3 10,5 34 19 51 27 W 1024,6 15 0 0,0
21.01.2018 16:00:00 13,4 11,6 12,8 10,2 10,5 29 15 51 27 W 1024,4 51 0 0,0
21.01.2018 15:00:00 13,0 12,1 12,5 10,1 10,5 29 16 48 26 W 1023,9 6 0 0,2
21.01.2018 14:00:00 13,0 11,9 12,6 10,0 10,5 31 17 46 25 W 1023,7 8 0 0,0
21.01.2018 13:00:00 13,1 12,0 12,6 10,0 10,5 31 17 55 30 W 1023,6 8 0 0,0
21.01.2018 12:00:00 13,0 11,9 12,2 9,9 10,5 31 17 45 24 W 1023,8 7 0 0,2
21.01.2018 11:00:00 12,8 11,4 12,2 9,8 10,5 28 15 53 29 W 1023,2 12 0 0,0
21.01.2018 10:00:00 12,6 11,3 11,8 9,8 10,5 28 15 51 27 W 1022,8 56 0 0,8
21.01.2018 09:00:00 12,4 11,3 11,7 9,7 10,5 31 17 51 28 W 1022,0 13 0 0,0
21.01.2018 08:00:00 12,5 11,1 11,6 9,7 10,5 29 15 53 29 W 1021,6 47 0 0,2
21.01.2018 07:00:00 12,4 11,0 11,6 9,7 10,5 34 18 57 31 W 1021,0 15 0 0,2
21.01.2018 06:00:00 12,4 11,1 11,6 9,6 10,5 35 19 51 27 W 1020,6 16 0 0,0
21.01.2018 05:00:00 12,1 11,2 11,6 9,6 10,5 31 17 53 28 W 1020,6 4,9 0 0,2
21.01.2018 04:00:00 12,2 11,3 11,6 9,5 10,5 32 18 51 28 W 1020,4 6 0 0,0
21.01.2018 03:00:00 12,2 11,3 11,5 9,5 10,5 34 18 53 29 W 1020,4 7 0 0,2
21.01.2018 02:00:00 12,3 11,0 11,5 9,4 10,5 35 19 55 30 W 1020,1 19 0 0,2
21.01.2018 01:00:00 12,1 11,2 11,5 9,3 10,5 31 17 51 27 W 1019,9 6 0 0,0
21.01.2018 00:00:00 12,1 11,0 11,5 9,2 10,5 31 17 58 32 W 1019,5 8 0 0,4
20.01.2018 23:00:00 12,2 11,1 11,5 9,2 10,5 34 18 52 28 W 1019,2 7 0 0,4
20.01.2018 22:00:00 12,1 11,2 11,3 9,1 10,4 32 17 58 31 W 1019,0 6 0 0,0
20.01.2018 21:00:00 11,8 10,9 11,0 9,1 10,5 31 17 51 28 W 1018,6 3,0 0 0,8
20.01.2018 20:00:00 11,6 10,5 10,6 9,0 10,5 33 18 55 30 W 1018,0 3,6 0 0,4
20.01.2018 19:00:00 11,2 10,1 10,3 8,9 10,5 34 19 58 31 W 1017,8 3,2 0 1,0
20.01.2018 18:00:00 11,2 9,5 10,0 8,9 10,5 38 21 60 33 W 1017,4 13 0 0,0
20.01.2018 17:00:00 10,7 9,0 9,8 8,8 10,5 44 24 75 40 W 1016,9 9 0 0,8
20.01.2018 16:00:00 10,7 8,5 9,8 8,8 10,5 45 24 75 40 W 1016,5 19 0 0,2
20.01.2018 15:00:00 11,0 7,5 9,5 8,7 10,5 40 21 70 38 W 1016,2 15 0 0,2
20.01.2018 14:00:00 10,6 7,5 9,4 8,6 10,4 44 24 74 40 W 1016,6 9 0 0,0
20.01.2018 13:00:00 10,1 6,8 8,7 8,6 10,5 38 20 63 34 W 1017,5 20 0 0,6
20.01.2018 12:00:00 10,1 6,2 8,7 8,6 10,5 35 19 64 34 WSW 1018,6 17 0 0,2
20.01.2018 11:00:00 8,7 5,3 7,1 8,6 10,5 12 6 22 12 SSW 1019,2 36 0 0,0
20.01.2018 10:00:00 7,1 4,7 6,5 8,7 10,5 10 5 15 8 S 1020,1 45 0 0,0
20.01.2018 09:00:00 7,6 4,2 7,0 8,7 10,5 11 6 22 12 SW 1020,3 30 0 0,0
20.01.2018 08:00:00 8,0 4,2 6,4 8,8 10,5 14 8 24 13 WSW 1021,0 60 0 0,0
20.01.2018 07:00:00 7,1 4,2 6,0 8,8 10,4 14 7 24 13 WSW 1021,4 60 0 0,0
20.01.2018 06:00:00 6,7 4,2 5,8 8,9 10,5 13 7 26 14 WSW 1022,0 60 0 0,0
20.01.2018 05:00:00 7,0 4,8 6,0 9,0 10,4 17 9 29 16 WSW 1022,8 60 0 0,0
20.01.2018 04:00:00 7,4 5,5 5,9 9,0 10,5 19 11 30 16 WSW 1023,7 55 0 0,0
20.01.2018 03:00:00 7,1 5,2 5,2 9,1 10,4 16 9 26 14 WSW 1024,5 42 0 0,0
20.01.2018 02:00:00 6,5 4,8 5,2 9,2 10,4 12 6 27 14 W 1024,8 44 0 0,0
20.01.2018 01:00:00 7,5 5,3 6,4 9,3 10,4 18 10 27 15 W 1024,9 56 0 0,0
20.01.2018 00:00:00 7,8 5,4 6,8 9,3 10,4 17 9 28 15 W 1024,7 60 0 0,0
19.01.2018 23:00:00 8,3 5,9 7,4 9,3 10,4 21 11 31 17 W 1024,0 60 0 0,0
19.01.2018 22:00:00 8,7 6,7 7,8 9,4 10,4 19 10 35 19 W 1023,3 58 0 0,0
19.01.2018 21:00:00 8,6 6,7 7,7 9,4 10,4 21 12 34 18 W 1022,9 20 0 0,4
19.01.2018 20:00:00 9,1 5,8 8,5 9,5 10,5 23 13 32 18 W 1022,4 60 0 0,0
19.01.2018 19:00:00 9,3 6,4 8,3 9,4 10,4 13 7 30 16 W 1021,9 59 0 0,2
19.01.2018 18:00:00 10,4 5,8 9,8 9,4 10,4 14 8 31 17 WNW 1021,2 60 12 0,0
19.01.2018 17:00:00 10,8 5,5 10,6 9,4 10,4 16 8 37 20 WNW 1020,6 52 60 0,0
19.01.2018 16:00:00 10,6 5,8 9,4 9,3 10,4 27 15 45 24 WNW 1020,2 45 16 0,2
19.01.2018 15:00:00 10,9 7,8 8,6 9,2 10,4 18 10 29 16 W 1019,8 44 15 0,4
19.01.2018 14:00:00 9,7 6,2 8,7 9,1 10,4 26 14 37 20 WNW 1020,1 7 4 0,2
19.01.2018 13:00:00 11,9 7,8 12,5 9,0 10,4 23 13 37 20 W 1020,3 32 9 0,0
19.01.2018 12:00:00 11,9 8,7 10,0 8,9 10,4 21 11 28 15 W 1020,9 45 37 0,0
19.01.2018 11:00:00 10,1 8,0 9,2 8,9 10,4 19 10 33 18 W 1021,3 24 0 0,2
19.01.2018 10:00:00 9,9 8,2 9,1 8,9 10,4 20 11 31 17 W 1021,0 9 0 0,0
19.01.2018 09:00:00 9,4 7,8 8,7 8,9 10,4 18 10 26 14 W 1020,4 48 0 0,0
19.01.2018 08:00:00 9,4 7,3 8,9 8,9 10,4 15 8 29 16 W 1020,2 10 0 0,0
19.01.2018 07:00:00 10,0 9,1 9,4 8,9 10,4 21 11 34 18 W 1019,6 10 0 0,6
19.01.2018 06:00:00 10,3 8,6 9,4 8,8 10,4 22 12 43 23 W 1019,3 10 0 0,2
19.01.2018 05:00:00 10,6 7,7 9,3 8,9 10,4 27 15 39 21 W 1019,0 60 0 0,0
19.01.2018 04:00:00 10,3 7,0 9,4 8,9 10,4 24 13 40 21 W 1019,5 10 0 0,0
19.01.2018 03:00:00 10,4 6,7 9,5 8,9 10,4 26 14 44 24 W 1020,1 10 0 0,0
19.01.2018 02:00:00 10,2 6,7 9,4 8,9 10,4 18 10 35 19 W 1020,5 10 0 0,0
19.01.2018 01:00:00 10,0 6,5 9,5 8,9 10,4 22 12 40 22 WSW 1020,6 10 0 0,0
19.01.2018 00:00:00 9,9 6,6 9,3 8,9 10,4 16 9 29 15 WSW 1020,9 10 0 0,0
18.01.2018 23:00:00 9,7 6,6 8,7 8,9 10,4 15 8 23 12 WSW 1021,4 10 0 0,0
18.01.2018 22:00:00 9,6 6,1 9,0 8,9 10,4 15 8 29 15 SW 1021,5 10 0 0,0
18.01.2018 21:00:00 10,5 6,3 9,7 9,0 10,4 16 9 27 14 W 1021,5 10 0 0,0
18.01.2018 20:00:00 10,5 6,1 9,7 8,9 10,4 13 7 26 14 WSW 1021,6 10 0 0,0
18.01.2018 19:00:00 10,9 6,0 9,9 8,9 10,4 18 10 30 16 W 1021,4 10 0 0,0
18.01.2018 18:00:00 11,1 6,0 10,4 8,8 10,4 18 10 29 15 WNW 1021,3 10 6 0,0
18.01.2018 17:00:00 12,5 4,9 12,1 8,7 10,4 21 11 32 17 W 1021,3 36 51 0,0
18.01.2018 16:00:00 13,3 5,4 15,0 8,6 10,4 20 11 29 16 W 1021,1 32 60 0,0
18.01.2018 15:00:00 13,0 5,4 15,0 8,4 10,4 18 10 31 17 W 1021,3 10 60 0,0
18.01.2018 14:00:00 12,5 5,4 14,2 8,3 10,4 16 8 29 16 W 1022,1 42 58 0,0
18.01.2018 13:00:00 12,2 5,1 12,8 8,2 10,4 9 5 20 11 WSW 1023,1 19 42 0,0
18.01.2018 12:00:00 10,4 4,1 8,7 8,2 10,4 11 6 24 13 SSW 1024,1 39 11 0,0
18.01.2018 11:00:00 8,1 3,2 6,8 8,2 10,4 9 5 19 11 SSW 1024,7 10 0 0,0
18.01.2018 10:00:00 6,5 2,8 5,8 8,2 10,4 13 7 18 10 SSW 1025,0 48 0 0,0

tt = Température de l'air
td = dewpoint
tt 5cm = Température de l'air 5cm
tt -20cm = Température de l'air -20cm
tt -100cm = Température de l'air -100cm
ff = Vitesse du vent
fx = gusts
dd = Direction du vent
ppp = reduced air pressure
vv = visibility
sd = Ensoleillement
rr = Quantités de précipitations

stations d'obs. à proximité